Location: Atherton
(17.2661°S, 145.4859°E)
Time: 03:57:57
(UTC+10:00)

ACS3 Solar Sail - Visible Passes

Search period start: 20 May 2025 00:00
Search period end: 30 May 2025 00:00
Orbit: 934 x 1009 km, 97.5° (Epoch: 19 May)

Date Brightness Start Highest point End Pass type
(mag) Time Alt. Az. Time Alt. Az. Time Alt. Az.
20 May 4.5 04:14:49 10° E 04:17:51 14° ESE 04:20:55 10° SE visible
20 May 2.0 05:54:38 10° N 06:00:36 55° W 06:06:44 10° SSW visible
20 May 4.0 18:49:40 10° SSW 18:54:29 24° WSW 18:59:13 10° NW visible
21 May 3.8 04:36:24 10° NE 04:41:19 25° ESE 04:46:18 10° SSE visible
21 May 4.5 19:15:11 10° SW 19:17:55 13° WSW 19:20:38 10° W visible
22 May 2.9 04:59:03 10° NE 05:04:50 44° ESE 05:10:44 10° S visible
23 May 2.0 05:22:15 10° NNE 05:28:23 77° ESE 05:34:41 10° S visible
23 May 2.9 18:16:30 10° S 18:22:23 47° WSW 18:28:09 10° NNW visible
24 May 4.5 04:06:59 10° E 04:09:19 12° ESE 04:11:40 10° SE visible
24 May 1.9 05:45:55 10° N 05:52:00 63° W 05:58:14 10° SSW visible
24 May 3.8 18:40:48 10° SSW 18:45:51 27° WSW 18:50:50 10° NW visible
25 May 4.0 04:28:02 10° ENE 04:32:41 22° ESE 04:37:22 10° SSE visible
25 May 2.5 06:10:05 10° NNW 06:15:38 35° W 06:21:20 10° SW visible
25 May 4.4 19:05:54 10° SW 19:09:13 15° WSW 19:12:32 10° WNW visible
26 May 3.1 04:50:25 10° NE 04:56:05 39° ESE 05:01:51 10° S visible
27 May 2.2 05:13:25 10° NNE 05:19:33 68° ESE 05:25:49 10° S visible
27 May 2.6 18:07:31 10° S 18:13:29 54° WSW 18:19:19 10° NNW visible
28 May 4.6 03:59:28 10° E 04:00:27 10° ESE 04:01:26 10° ESE visible
28 May 1.8 05:36:54 10° N 05:43:03 71° W 05:49:22 10° SSW visible
28 May 3.6 18:31:37 10° SSW 18:36:54 31° WSW 18:42:03 10° NW visible
29 May 4.1 04:19:25 10° ENE 04:23:42 20° ESE 04:28:03 10° SSE visible
29 May 2.3 06:00:50 10° NNW 06:06:36 41° W 06:12:29 10° SSW visible
29 May 4.3 18:56:21 10° SSW 19:00:12 17° WSW 19:03:59 10° WNW visible
